Time,TemperatureF,DewpointF,PressureIn,WindDirection,WindDirectionDegrees,WindSpeedMPH,WindSpeedGustMPH,Humidity,HourlyPrecipIn,Conditions,Clouds,dailyrainin,SoftwareType,DateUTC
2013-02-05 00:01:00,50.7,49.1,29.83,North,0,0.0,0.0,94,0.00,CLR,,0.00,WeatherDisplay:10.37,2013-02-05 06:01:00,
2013-02-05 00:06:00,50.7,49.1,29.83,North,0,0.0,0.0,94,0.00,CLR,,0.00,WeatherDisplay:10.37,2013-02-05 06:06:00,
2013-02-05 00:11:00,50.5,49.2,29.83,North,0,1.1,0.0,95,0.00,CLR,,0.00,WeatherDisplay:10.37,2013-02-05 06:11:00,
2013-02-05 00:17:00,50.7,49.3,29.83,North,0,0.0,0.0,95,0.00,CLR,,0.00,WeatherDisplay:10.37,2013-02-05 06:17:00,
2013-02-05 00:22:00,50.9,49.5,29.83,East,90,1.1,0.0,95,0.00,CLR,,0.00,WeatherDisplay:10.37,2013-02-05 06:22:00,
2013-02-05 00:27:00,51.1,49.7,29.83,East,90,0.0,0.0,95,0.00,CLR,,0.00,WeatherDisplay:10.37,2013-02-05 06:27:00,
2013-02-05 00:32:00,51.3,49.9,29.83,East,90,1.1,0.0,95,0.00,CLR,,0.00,WeatherDisplay:10.37,2013-02-05 06:32:00,
2013-02-05 00:37:00,51.3,50.2,29.83,East,90,0.0,0.0,96,0.00,CLR,,0.00,WeatherDisplay:10.37,2013-02-05 06:37:00,
2013-02-05 00:42:00,51.4,50.1,29.83,East,90,0.0,0.0,95,0.00,CLR,,0.00,WeatherDisplay:10.37,2013-02-05 06:42:00,
2013-02-05 00:47:00,51.3,49.9,29.83,East,90,0.0,0.0,95,0.00,CLR,,0.00,WeatherDisplay:10.37,2013-02-05 06:47:00,
2013-02-05 00:52:00,51.1,49.7,29.83,NW,315,1.1,0.0,95,0.00,CLR,,0.00,WeatherDisplay:10.37,2013-02-05 06:52:00,
2013-02-05 00:57:00,51.1,49.7,29.83,NW,315,0.0,0.0,95,0.00,CLR,,0.00,WeatherDisplay:10.37,2013-02-05 06:57:00,
2013-02-05 01:02:00,51.1,49.7,29.84,NE,45,1.1,0.0,95,0.00,CLR,,0.00,WeatherDisplay:10.37,2013-02-05 07:02:00,
2013-02-05 01:07:00,51.1,49.7,29.84,NE,45,1.1,0.0,95,0.00,CLR,,0.00,WeatherDisplay:10.37,2013-02-05 07:07:00,
2013-02-05 01:12:00,51.8,50.7,29.83,North,0,0.0,0.0,96,0.00,CLR,,0.00,WeatherDisplay:10.37,2013-02-05 07:12:00,
2013-02-05 01:17:00,52.0,50.9,29.83,North,0,0.0,0.0,96,0.00,CLR,,0.00,WeatherDisplay:10.37,2013-02-05 07:17:00,
2013-02-05 01:22:00,52.2,51.1,29.83,NE,45,1.1,1.1,96,0.00,CLR,,0.00,WeatherDisplay:10.37,2013-02-05 07:22:00,
2013-02-05 01:27:00,52.3,51.2,29.83,NE,45,1.1,0.0,96,0.00,CLR,,0.00,WeatherDisplay:10.37,2013-02-05 07:27:00,
2013-02-05 01:32:00,52.5,51.4,29.83,NW,315,1.1,0.0,96,0.00,CLR,,0.00,WeatherDisplay:10.37,2013-02-05 07:32:00,
2013-02-05 01:37:00,52.7,51.6,29.83,NW,315,0.0,0.0,96,0.00,CLR,,0.00,WeatherDisplay:10.37,2013-02-05 07:37:00,
2013-02-05 01:42:00,52.9,51.8,29.83,East,90,1.1,0.0,96,0.00,CLR,,0.00,WeatherDisplay:10.37,2013-02-05 07:42:00,
2013-02-05 01:48:00,52.9,51.8,29.83,East,90,1.1,0.0,96,0.00,CLR,,0.00,WeatherDisplay:10.37,2013-02-05 07:48:00,
2013-02-05 01:53:00,53.1,52.0,29.83,North,0,1.1,0.0,96,0.00,CLR,,0.00,WeatherDisplay:10.37,2013-02-05 07:53:00,
2013-02-05 01:58:00,53.2,52.1,29.82,SW,225,0.0,0.0,96,0.00,CLR,,0.00,WeatherDisplay:10.37,2013-02-05 07:58:00,
2013-02-05 02:03:00,53.2,52.1,29.83,SE,135,1.1,0.0,96,0.00,CLR,,0.00,WeatherDisplay:10.37,2013-02-05 08:03:00,
2013-02-05 02:08:00,53.6,52.5,29.82,SE,135,1.1,0.0,96,0.00,CLR,,0.00,WeatherDisplay:10.37,2013-02-05 08:08:00,
2013-02-05 02:13:00,53.6,52.5,29.82,North,0,0.0,0.0,96,0.00,CLR,,0.00,WeatherDisplay:10.37,2013-02-05 08:13:00,
2013-02-05 02:18:00,53.8,52.7,29.83,South,180,0.7,0.0,96,0.00,CLR,,0.00,WeatherDisplay:10.37,2013-02-05 08:18:00,
2013-02-05 02:23:00,53.8,52.7,29.82,SE,135,1.1,0.0,96,0.00,CLR,,0.00,WeatherDisplay:10.37,2013-02-05 08:23:00,
2013-02-05 02:28:00,54.0,52.8,29.82,East,90,1.1,1.1,96,0.00,CLR,,0.00,WeatherDisplay:10.37,2013-02-05 08:28:00,
2013-02-05 02:33:00,54.1,53.0,29.82,South,180,1.1,0.0,96,0.00,CLR,,0.00,WeatherDisplay:10.37,2013-02-05 08:33:00,
2013-02-05 02:38:00,54.3,53.2,29.81,NE,45,1.1,1.6,96,0.00,CLR,,0.00,WeatherDisplay:10.37,2013-02-05 08:38:00,
2013-02-05 02:43:00,54.3,52.9,29.81,SE,135,1.1,0.0,95,0.00,CLR,,0.00,WeatherDisplay:10.37,2013-02-05 08:43:00,
2013-02-05 02:48:00,54.3,52.9,29.82,West,270,1.1,0.0,95,0.00,CLR,,0.00,WeatherDisplay:10.37,2013-02-05 08:48:00,
2013-02-05 02:53:00,54.3,52.9,29.82,West,270,2.3,2.3,95,0.00,CLR,,0.00,WeatherDisplay:10.37,2013-02-05 08:53:00,
2013-02-05 02:58:00,54.3,52.9,29.82,North,0,1.1,1.1,95,0.00,CLR,,0.00,WeatherDisplay:10.37,2013-02-05 08:58:00,
2013-02-05 03:03:00,54.3,52.9,29.82,North,0,1.1,0.0,95,0.00,CLR,,0.00,WeatherDisplay:10.37,2013-02-05 09:03:00,
2013-02-05 03:08:00,54.5,53.1,29.82,NE,45,1.1,0.0,95,0.00,CLR,,0.00,WeatherDisplay:10.37,2013-02-05 09:08:00,
2013-02-05 03:13:00,54.5,53.1,29.81,North,0,1.1,0.0,95,0.00,CLR,,0.00,WeatherDisplay:10.37,2013-02-05 09:13:00,
2013-02-05 03:19:00,54.5,53.1,29.81,SE,135,2.3,2.3,95,0.00,CLR,,0.00,WeatherDisplay:10.37,2013-02-05 09:19:00,
2013-02-05 03:24:00,54.5,53.1,29.82,SE,135,1.1,0.0,95,0.00,CLR,,0.00,WeatherDisplay:10.37,2013-02-05 09:24:00,
2013-02-05 03:29:00,54.7,53.3,29.83,SE,135,1.1,0.0,95,0.00,CLR,,0.00,WeatherDisplay:10.37,2013-02-05 09:29:00,
2013-02-05 03:34:00,54.7,53.3,29.82,SE,135,1.1,0.0,95,0.00,CLR,,0.00,WeatherDisplay:10.37,2013-02-05 09:34:00,
2013-02-05 03:39:00,54.7,53.3,29.82,SE,135,0.0,0.0,95,0.00,CLR,,0.00,WeatherDisplay:10.37,2013-02-05 09:39:00,
2013-02-05 03:45:00,54.7,53.3,29.82,SE,135,1.1,0.0,95,0.00,CLR,,0.00,WeatherDisplay:10.37,2013-02-05 09:45:00,
2013-02-05 03:50:00,54.7,53.3,29.82,South,180,1.1,0.0,95,0.00,CLR,,0.00,WeatherDisplay:10.37,2013-02-05 09:50:00,
2013-02-05 03:55:00,54.7,53.3,29.82,SE,135,1.1,0.0,95,0.00,CLR,,0.00,WeatherDisplay:10.37,2013-02-05 09:55:00,
2013-02-05 04:00:00,54.9,53.5,29.82,West,270,1.1,0.0,95,0.00,CLR,,0.00,WeatherDisplay:10.37,2013-02-05 10:00:00,
2013-02-05 04:05:00,54.9,53.5,29.82,West,270,1.1,0.0,95,0.00,CLR,,0.00,WeatherDisplay:10.37,2013-02-05 10:05:00,
2013-02-05 04:10:00,54.9,53.5,29.82,South,180,0.0,0.0,95,0.01,RA,,0.01,WeatherDisplay:10.37,2013-02-05 10:10:00,
2013-02-05 04:15:00,54.9,53.5,29.82,NE,45,2.3,2.3,95,0.01,RA,,0.01,WeatherDisplay:10.37,2013-02-05 10:15:00,
2013-02-05 04:20:00,54.7,53.3,29.82,North,6,0.0,2.0,95,0.00,CLR,,0.01,WeatherDisplay:10.37,2013-02-05 10:20:00,
2013-02-05 04:25:00,54.7,53.3,29.83,NW,318,0.0,2.0,95,0.00,CLR,,0.01,WeatherDisplay:10.37,2013-02-05 10:25:00,
2013-02-05 04:30:00,54.7,53.6,29.83,NE,51,0.0,3.0,96,0.00,CLR,,0.01,WeatherDisplay:10.37,2013-02-05 10:30:00,
2013-02-05 04:35:00,54.5,53.4,29.83,NE,50,1.0,2.0,96,0.00,CLR,,0.01,WeatherDisplay:10.37,2013-02-05 10:35:00,
2013-02-05 04:40:00,54.5,53.4,29.82,North,0,1.1,0.0,96,0.01,CLR,,0.01,WeatherDisplay:10.37,2013-02-05 10:40:00,
2013-02-05 04:45:00,54.5,53.4,29.83,North,0,0.0,0.0,96,0.01,CLR,,0.01,WeatherDisplay:10.37,2013-02-05 10:45:00,
2013-02-05 04:50:00,54.5,53.4,29.83,South,180,0.0,0.0,96,0.01,CLR,,0.01,WeatherDisplay:10.37,2013-02-05 10:50:00,
2013-02-05 04:55:00,54.5,53.4,29.83,South,180,1.1,0.0,96,0.01,CLR,,0.01,WeatherDisplay:10.37,2013-02-05 10:55:00,
2013-02-05 05:00:00,54.3,53.5,29.83,NE,45,1.1,0.0,97,0.01,CLR,,0.01,WeatherDisplay:10.37,2013-02-05 11:00:00,
2013-02-05 05:05:00,54.3,53.5,29.83,NE,45,1.1,0.0,97,0.01,CLR,,0.01,WeatherDisplay:10.37,2013-02-05 11:05:00,
2013-02-05 05:10:00,54.5,53.7,29.83,NE,45,1.1,0.0,97,0.00,CLR,,0.01,WeatherDisplay:10.37,2013-02-05 11:10:00,
2013-02-05 05:15:00,54.3,53.5,29.83,NE,45,0.0,0.0,97,0.00,CLR,,0.01,WeatherDisplay:10.37,2013-02-05 11:15:00,
2013-02-05 05:20:00,54.5,53.7,29.83,SE,135,0.0,0.0,97,0.00,CLR,,0.01,WeatherDisplay:10.37,2013-02-05 11:20:00,
2013-02-05 05:26:00,54.3,53.5,29.83,SE,135,1.1,0.0,97,0.00,CLR,,0.01,WeatherDisplay:10.37,2013-02-05 11:26:00,
2013-02-05 05:31:00,54.3,53.5,29.84,West,270,1.1,0.0,97,0.00,CLR,,0.01,WeatherDisplay:10.37,2013-02-05 11:31:00,
2013-02-05 05:36:00,54.3,53.5,29.84,NE,45,1.6,1.6,97,0.00,CLR,,0.01,WeatherDisplay:10.37,2013-02-05 11:36:00,
2013-02-05 05:41:00,54.3,53.5,29.84,SE,135,1.1,0.0,97,0.00,CLR,,0.01,WeatherDisplay:10.37,2013-02-05 11:41:00,
2013-02-05 05:46:00,54.5,53.7,29.84,SE,135,1.1,0.0,97,0.00,CLR,,0.01,WeatherDisplay:10.37,2013-02-05 11:46:00,
2013-02-05 05:51:00,54.5,53.7,29.85,SE,135,1.1,0.0,97,0.00,CLR,,0.01,WeatherDisplay:10.37,2013-02-05 11:51:00,
2013-02-05 05:56:00,54.5,53.7,29.85,West,270,0.0,0.0,97,0.00,CLR,,0.01,WeatherDisplay:10.37,2013-02-05 11:56:00,
2013-02-05 06:01:00,54.5,53.7,29.85,NE,45,1.1,1.1,97,0.00,CLR,,0.01,WeatherDisplay:10.37,2013-02-05 12:01:00,
2013-02-05 06:06:00,54.5,53.7,29.85,NE,45,1.1,1.1,97,0.00,CLR,,0.01,WeatherDisplay:10.37,2013-02-05 12:06:00,
2013-02-05 06:11:00,54.5,53.7,29.84,NE,45,0.0,0.0,97,0.00,CLR,,0.01,WeatherDisplay:10.37,2013-02-05 12:11:00,
2013-02-05 06:16:00,54.5,53.9,29.85,NE,45,1.1,1.1,98,0.00,CLR,,0.01,WeatherDisplay:10.37,2013-02-05 12:16:00,
2013-02-05 06:21:00,54.5,53.9,29.85,NW,315,1.1,0.0,98,0.00,CLR,,0.01,WeatherDisplay:10.37,2013-02-05 12:21:00,
2013-02-05 06:27:00,54.5,53.9,29.85,East,90,1.1,0.0,98,0.00,CLR,,0.01,WeatherDisplay:10.37,2013-02-05 12:27:00,
2013-02-05 06:32:00,54.5,53.9,29.86,East,90,0.0,0.0,98,0.00,CLR,,0.01,WeatherDisplay:10.37,2013-02-05 12:32:00,
2013-02-05 06:37:00,54.5,53.9,29.85,NE,45,1.1,0.0,98,0.00,CLR,,0.01,WeatherDisplay:10.37,2013-02-05 12:37:00,
2013-02-05 06:42:00,54.5,53.9,29.85,NE,45,1.1,0.0,98,0.00,CLR,,0.01,WeatherDisplay:10.37,2013-02-05 12:42:00,
2013-02-05 06:47:00,54.5,53.9,29.86,NE,45,0.0,0.0,98,0.00,CLR,,0.01,WeatherDisplay:10.37,2013-02-05 12:47:00,
2013-02-05 06:52:00,54.5,53.9,29.86,NE,45,1.1,0.0,98,0.00,CLR,,0.01,WeatherDisplay:10.37,2013-02-05 12:52:00,
2013-02-05 06:57:00,54.5,53.9,29.86,NE,45,1.1,0.0,98,0.00,CLR,,0.01,WeatherDisplay:10.37,2013-02-05 12:57:00,
2013-02-05 07:02:00,54.5,53.9,29.85,NE,45,1.1,1.1,98,0.00,CLR,,0.01,WeatherDisplay:10.37,2013-02-05 13:02:00,
2013-02-05 07:07:00,54.5,53.9,29.86,NE,45,1.1,1.1,98,0.00,CLR,,0.01,WeatherDisplay:10.37,2013-02-05 13:07:00,
2013-02-05 07:12:00,54.7,54.1,29.86,NE,45,0.0,0.0,98,0.00,CLR,,0.01,WeatherDisplay:10.37,2013-02-05 13:12:00,
2013-02-05 07:17:00,54.7,54.1,29.86,East,90,1.1,1.1,98,0.00,CLR,,0.01,WeatherDisplay:10.37,2013-02-05 13:17:00,
2013-02-05 07:22:00,54.7,54.1,29.86,East,90,1.1,0.0,98,0.00,CLR,,0.01,WeatherDisplay:10.37,2013-02-05 13:22:00,
2013-02-05 07:27:00,54.7,54.1,29.86,East,90,0.0,0.0,98,0.00,CLR,,0.01,WeatherDisplay:10.37,2013-02-05 13:27:00,
2013-02-05 07:32:00,54.9,54.3,29.86,North,0,1.1,0.0,98,0.00,CLR,,0.01,WeatherDisplay:10.37,2013-02-05 13:32:00,
2013-02-05 07:37:00,54.9,54.3,29.86,East,90,1.1,0.0,98,0.00,CLR,,0.01,WeatherDisplay:10.37,2013-02-05 13:37:00,
2013-02-05 07:42:00,55.0,54.5,29.86,East,90,1.1,0.0,98,0.00,CLR,,0.01,WeatherDisplay:10.37,2013-02-05 13:42:00,
2013-02-05 07:47:00,55.2,54.9,29.86,NW,315,0.0,0.0,99,0.00,CLR,,0.01,WeatherDisplay:10.37,2013-02-05 13:47:00,
2013-02-05 07:52:00,55.4,55.1,29.87,North,0,0.0,0.0,99,0.00,CLR,,0.01,WeatherDisplay:10.37,2013-02-05 13:52:00,
2013-02-05 07:57:00,55.6,55.3,29.87,East,90,0.0,0.0,99,0.00,CLR,,0.01,WeatherDisplay:10.37,2013-02-05 13:57:00,
2013-02-05 08:03:00,55.6,55.3,29.87,West,270,1.1,0.0,99,0.00,CLR,,0.01,WeatherDisplay:10.37,2013-02-05 14:03:00,
2013-02-05 08:08:00,55.8,55.5,29.87,SE,135,1.1,0.0,99,0.00,CLR,,0.01,WeatherDisplay:10.37,2013-02-05 14:08:00,
2013-02-05 08:13:00,55.8,55.5,29.87,SE,135,1.1,0.0,99,0.00,CLR,,0.01,WeatherDisplay:10.37,2013-02-05 14:13:00,
2013-02-05 08:18:00,55.9,55.7,29.88,East,90,1.1,0.0,99,0.00,CLR,,0.01,WeatherDisplay:10.37,2013-02-05 14:18:00,
2013-02-05 08:23:00,56.1,55.8,29.88,SE,135,0.0,0.0,99,0.00,CLR,,0.01,WeatherDisplay:10.37,2013-02-05 14:23:00,
2013-02-05 08:28:00,56.1,55.8,29.88,North,0,1.1,1.1,99,0.00,CLR,,0.01,WeatherDisplay:10.37,2013-02-05 14:28:00,
2013-02-05 08:33:00,56.3,56.0,29.88,South,180,1.1,0.0,99,0.00,CLR,,0.01,WeatherDisplay:10.37,2013-02-05 14:33:00,
2013-02-05 08:38:00,56.3,56.0,29.88,NE,45,0.0,0.0,99,0.00,CLR,,0.01,WeatherDisplay:10.37,2013-02-05 14:38:00,
2013-02-05 08:43:00,56.5,56.2,29.88,North,0,1.1,0.0,99,0.00,CLR,,0.01,WeatherDisplay:10.37,2013-02-05 14:43:00,
2013-02-05 08:48:00,56.7,56.4,29.89,North,0,1.1,0.0,99,0.00,CLR,,0.01,WeatherDisplay:10.37,2013-02-05 14:48:00,
2013-02-05 08:53:00,56.8,56.6,29.88,North,0,0.0,0.0,99,0.00,CLR,,0.01,WeatherDisplay:10.37,2013-02-05 14:53:00,
2013-02-05 08:58:00,57.2,56.9,29.89,West,270,0.0,0.7,99,0.00,CLR,,0.01,WeatherDisplay:10.37,2013-02-05 14:58:00,
2013-02-05 09:03:00,57.2,56.9,29.90,NW,315,1.1,0.0,99,0.00,CLR,,0.01,WeatherDisplay:10.37,2013-02-05 15:03:00,
2013-02-05 09:08:00,57.2,56.9,29.90,SW,225,1.1,1.1,99,0.00,CLR,,0.01,WeatherDisplay:10.37,2013-02-05 15:08:00,
2013-02-05 09:13:00,57.2,56.9,29.90,NW,315,1.1,0.0,99,0.00,CLR,,0.01,WeatherDisplay:10.37,2013-02-05 15:13:00,
2013-02-05 09:18:00,57.4,57.1,29.90,NW,315,1.1,0.0,99,0.00,CLR,,0.01,WeatherDisplay:10.37,2013-02-05 15:18:00,
2013-02-05 09:23:00,57.7,57.5,29.90,NW,315,2.3,2.3,99,0.00,CLR,,0.01,WeatherDisplay:10.37,2013-02-05 15:23:00,
2013-02-05 09:28:00,57.7,57.5,29.91,NE,45,1.1,1.1,99,0.00,CLR,,0.01,WeatherDisplay:10.37,2013-02-05 15:28:00,
2013-02-05 09:33:00,58.1,57.8,29.91,SW,225,1.1,0.0,99,0.00,CLR,,0.01,WeatherDisplay:10.37,2013-02-05 15:33:00,
2013-02-05 09:38:00,58.1,57.8,29.91,East,90,1.1,0.0,99,0.00,CLR,,0.01,WeatherDisplay:10.37,2013-02-05 15:38:00,
2013-02-05 09:43:00,58.3,58.0,29.91,SE,135,1.1,1.1,99,0.00,CLR,,0.01,WeatherDisplay:10.37,2013-02-05 15:43:00,
2013-02-05 09:48:00,58.1,57.8,29.92,West,270,2.3,2.3,99,0.00,CLR,,0.01,WeatherDisplay:10.37,2013-02-05 15:48:00,
2013-02-05 09:53:00,58.1,57.8,29.92,North,0,1.1,0.0,99,0.00,CLR,,0.01,WeatherDisplay:10.37,2013-02-05 15:53:00,
2013-02-05 09:58:00,58.3,58.0,29.92,North,0,1.1,0.0,99,0.00,CLR,,0.01,WeatherDisplay:10.37,2013-02-05 15:58:00,
2013-02-05 10:03:00,58.3,58.0,29.92,NW,315,1.1,0.0,99,0.00,CLR,,0.01,WeatherDisplay:10.37,2013-02-05 16:03:00,
2013-02-05 10:09:00,58.6,58.4,29.93,South,180,1.1,0.0,99,0.00,CLR,,0.01,WeatherDisplay:10.37,2013-02-05 16:09:00,
2013-02-05 10:14:00,58.8,58.5,29.93,North,0,2.3,0.0,99,0.00,CLR,,0.01,WeatherDisplay:10.37,2013-02-05 16:14:00,
2013-02-05 10:19:00,59.0,58.7,29.93,NE,45,1.1,0.0,99,0.00,CLR,,0.01,WeatherDisplay:10.37,2013-02-05 16:19:00,
2013-02-05 10:24:00,59.0,58.7,29.93,North,0,1.1,0.0,99,0.00,CLR,,0.01,WeatherDisplay:10.37,2013-02-05 16:24:00,
2013-02-05 10:30:00,59.2,58.9,29.93,NE,45,2.3,2.3,99,0.00,CLR,,0.01,WeatherDisplay:10.37,2013-02-05 16:30:00,
2013-02-05 10:35:00,59.4,59.1,29.93,North,0,1.1,0.0,99,0.00,CLR,,0.01,WeatherDisplay:10.37,2013-02-05 16:35:00,
2013-02-05 10:40:00,59.5,59.3,29.93,NE,45,2.3,2.3,99,0.00,CLR,,0.01,WeatherDisplay:10.37,2013-02-05 16:40:00,
2013-02-05 10:45:00,59.7,59.4,29.93,North,0,1.1,1.1,99,0.00,CLR,,0.01,WeatherDisplay:10.37,2013-02-05 16:45:00,
2013-02-05 10:50:00,60.1,59.8,29.93,NE,45,1.1,1.1,99,0.00,CLR,,0.01,WeatherDisplay:10.37,2013-02-05 16:50:00,
2013-02-05 10:55:00,60.3,60.0,29.93,NE,45,2.3,2.3,99,0.00,CLR,,0.01,WeatherDisplay:10.37,2013-02-05 16:55:00,
2013-02-05 11:00:00,60.4,60.2,29.93,NE,45,2.3,2.3,99,0.00,CLR,,0.01,WeatherDisplay:10.37,2013-02-05 17:00:00,
2013-02-05 11:05:00,60.4,60.2,29.93,NE,52,1.0,2.0,99,0.00,CLR,,0.01,WeatherDisplay:10.37,2013-02-05 17:05:00,
2013-02-05 11:10:00,60.6,60.1,29.93,NE,45,2.3,2.3,98,0.00,CLR,,0.01,WeatherDisplay:10.37,2013-02-05 17:10:00,
2013-02-05 11:15:00,60.6,60.1,29.93,North,355,1.0,2.0,98,0.00,CLR,,0.01,WeatherDisplay:10.37,2013-02-05 17:15:00,
2013-02-05 11:20:00,60.4,59.6,29.93,West,264,0.0,2.0,97,0.00,CLR,,0.01,WeatherDisplay:10.37,2013-02-05 17:20:00,
2013-02-05 11:25:00,60.4,59.6,29.92,NNW,330,1.0,2.0,97,0.00,CLR,,0.01,WeatherDisplay:10.37,2013-02-05 17:25:00,
2013-02-05 11:30:00,60.4,59.6,29.92,NNE,13,0.0,2.0,97,0.00,CLR,,0.01,WeatherDisplay:10.37,2013-02-05 17:30:00,
2013-02-05 11:35:00,60.4,59.6,29.92,North,3,0.0,2.0,97,0.00,CLR,,0.01,WeatherDisplay:10.37,2013-02-05 17:35:00,
2013-02-05 11:40:00,60.6,59.8,29.92,North,4,0.0,2.0,97,0.00,CLR,,0.01,WeatherDisplay:10.37,2013-02-05 17:40:00,
2013-02-05 11:45:00,60.8,59.9,29.92,North,2,0.0,2.0,97,0.00,CLR,,0.01,WeatherDisplay:10.37,2013-02-05 17:45:00,
2013-02-05 11:50:00,61.0,60.1,29.92,NW,315,2.3,2.3,97,0.00,CLR,,0.01,WeatherDisplay:10.37,2013-02-05 17:50:00,
2013-02-05 11:55:00,61.0,59.8,29.92,North,359,0.0,3.0,96,0.00,CLR,,0.01,WeatherDisplay:10.37,2013-02-05 17:55:00,
2013-02-05 12:00:00,61.2,60.0,29.92,West,270,1.1,0.0,96,0.00,CLR,,0.01,WeatherDisplay:10.37,2013-02-05 18:00:00,
2013-02-05 12:05:00,61.2,60.0,29.92,West,270,1.1,0.0,96,0.00,CLR,,0.01,WeatherDisplay:10.37,2013-02-05 18:05:00,
2013-02-05 12:10:00,61.2,60.0,29.92,NW,315,2.3,2.3,96,0.00,CLR,,0.01,WeatherDisplay:10.37,2013-02-05 18:10:00,
2013-02-05 12:15:00,61.2,60.0,29.91,West,270,2.3,0.0,96,0.00,CLR,,0.01,WeatherDisplay:10.37,2013-02-05 18:15:00,
2013-02-05 12:20:00,61.3,59.9,29.92,South,180,1.1,0.0,95,0.00,CLR,,0.01,WeatherDisplay:10.37,2013-02-05 18:20:00,
2013-02-05 12:25:00,61.7,60.3,29.92,NE,45,2.3,2.3,95,0.00,CLR,,0.01,WeatherDisplay:10.37,2013-02-05 18:25:00,
2013-02-05 12:30:00,61.9,60.4,29.92,NE,45,2.3,2.3,95,0.00,CLR,,0.01,WeatherDisplay:10.37,2013-02-05 18:30:00,
2013-02-05 12:36:00,61.9,60.1,29.91,West,270,3.5,0.0,94,0.00,CLR,,0.01,WeatherDisplay:10.37,2013-02-05 18:36:00,
2013-02-05 12:41:00,61.9,60.1,29.91,North,0,1.1,0.0,94,0.00,CLR,,0.01,WeatherDisplay:10.37,2013-02-05 18:41:00,
2013-02-05 12:46:00,61.9,60.1,29.91,NW,315,2.3,2.3,94,0.00,CLR,,0.01,WeatherDisplay:10.37,2013-02-05 18:46:00,
2013-02-05 12:51:00,62.1,60.3,29.91,NW,315,2.3,2.3,94,0.00,CLR,,0.01,WeatherDisplay:10.37,2013-02-05 18:51:00,
2013-02-05 12:56:00,62.4,60.4,29.91,West,270,2.3,0.0,93,0.00,CLR,,0.01,WeatherDisplay:10.37,2013-02-05 18:56:00,
2013-02-05 13:01:00,62.4,60.1,29.91,West,270,3.5,3.5,92,0.00,CLR,,0.01,WeatherDisplay:10.37,2013-02-05 19:01:00,
2013-02-05 13:06:00,62.4,60.1,29.90,West,270,2.3,2.3,92,0.00,CLR,,0.01,WeatherDisplay:10.37,2013-02-05 19:06:00,
2013-02-05 13:11:00,62.8,59.8,29.90,West,270,3.5,0.0,90,0.00,CLR,,0.01,WeatherDisplay:10.37,2013-02-05 19:11:00,
2013-02-05 13:16:00,62.6,59.6,29.90,West,270,3.5,3.5,90,0.00,CLR,,0.01,WeatherDisplay:10.37,2013-02-05 19:16:00,
2013-02-05 13:21:00,62.6,59.6,29.90,South,180,2.3,0.0,90,0.00,CLR,,0.01,WeatherDisplay:10.37,2013-02-05 19:21:00,
2013-02-05 13:26:00,62.4,59.4,29.90,NW,315,2.3,2.3,90,0.00,CLR,,0.01,WeatherDisplay:10.37,2013-02-05 19:26:00,
2013-02-05 13:31:00,62.8,59.8,29.90,West,270,3.5,3.5,90,0.00,CLR,,0.01,WeatherDisplay:10.37,2013-02-05 19:31:00,
2013-02-05 13:36:00,62.6,59.6,29.90,NW,315,3.5,3.5,90,0.00,CLR,,0.01,WeatherDisplay:10.37,2013-02-05 19:36:00,
2013-02-05 13:41:00,63.0,59.7,29.90,West,270,3.5,3.5,89,0.00,CLR,,0.01,WeatherDisplay:10.37,2013-02-05 19:41:00,
2013-02-05 13:46:00,63.0,59.7,29.90,NE,45,2.3,2.3,89,0.00,CLR,,0.01,WeatherDisplay:10.37,2013-02-05 19:46:00,
2013-02-05 13:51:00,63.1,59.8,29.90,East,90,3.5,0.0,89,0.00,CLR,,0.01,WeatherDisplay:10.37,2013-02-05 19:51:00,
2013-02-05 13:57:00,63.7,60.4,29.90,North,0,3.5,0.0,89,0.00,CLR,,0.01,WeatherDisplay:10.37,2013-02-05 19:57:00,
2013-02-05 14:02:00,64.0,60.7,29.89,East,90,3.5,3.5,89,0.00,CLR,,0.01,WeatherDisplay:10.37,2013-02-05 20:02:00,
2013-02-05 14:07:00,64.0,60.7,29.89,East,90,3.5,3.5,89,0.00,CLR,,0.01,WeatherDisplay:10.37,2013-02-05 20:07:00,
2013-02-05 14:12:00,65.3,60.7,29.89,SE,135,2.3,0.0,85,0.00,CLR,,0.01,WeatherDisplay:10.37,2013-02-05 20:12:00,
2013-02-05 14:17:00,65.8,61.2,29.88,NE,45,1.1,0.0,85,0.00,CLR,,0.01,WeatherDisplay:10.37,2013-02-05 20:17:00,
2013-02-05 14:22:00,66.4,61.1,29.89,NE,45,3.5,3.5,83,0.00,CLR,,0.01,WeatherDisplay:10.37,2013-02-05 20:22:00,
2013-02-05 14:27:00,66.9,61.2,29.89,West,270,2.3,2.3,82,0.00,CLR,,0.01,WeatherDisplay:10.37,2013-02-05 20:27:00,
2013-02-05 14:32:00,67.1,61.1,29.88,NE,45,3.5,3.5,81,0.00,CLR,,0.01,WeatherDisplay:10.37,2013-02-05 20:32:00,
2013-02-05 14:37:00,67.3,61.2,29.89,North,0,3.5,3.5,81,0.00,CLR,,0.01,WeatherDisplay:10.37,2013-02-05 20:37:00,
2013-02-05 14:42:00,67.8,61.4,29.88,ESE,112,2.3,0.0,80,0.00,CLR,,0.01,WeatherDisplay:10.37,2013-02-05 20:42:00,
2013-02-05 14:47:00,67.8,60.7,29.88,North,0,3.5,0.0,78,0.00,CLR,,0.01,WeatherDisplay:10.37,2013-02-05 20:47:00,
2013-02-05 14:52:00,67.5,60.4,29.88,NE,45,1.1,1.1,78,0.00,CLR,,0.01,WeatherDisplay:10.37,2013-02-05 20:52:00,
2013-02-05 14:57:00,67.8,61.1,29.88,SE,135,3.5,3.5,79,0.00,CLR,,0.01,WeatherDisplay:10.37,2013-02-05 20:57:00,
2013-02-05 15:02:00,68.0,60.9,29.88,NE,45,3.5,3.5,78,0.00,CLR,,0.01,WeatherDisplay:10.37,2013-02-05 21:02:00,
2013-02-05 15:07:00,68.0,60.9,29.88,NE,45,3.5,3.5,78,0.00,CLR,,0.01,WeatherDisplay:10.37,2013-02-05 21:07:00,
2013-02-05 15:12:00,67.8,60.3,29.88,SE,135,3.5,3.5,77,0.00,CLR,,0.01,WeatherDisplay:10.37,2013-02-05 21:12:00,
2013-02-05 15:17:00,67.8,60.7,29.88,East,90,3.5,3.5,78,0.00,CLR,,0.01,WeatherDisplay:10.37,2013-02-05 21:17:00,
2013-02-05 15:22:00,68.0,60.9,29.88,NE,45,3.5,3.5,78,0.00,CLR,,0.01,WeatherDisplay:10.37,2013-02-05 21:22:00,
2013-02-05 15:27:00,68.2,61.1,29.88,SW,225,3.5,0.0,78,0.00,CLR,,0.01,WeatherDisplay:10.37,2013-02-05 21:27:00,
2013-02-05 15:32:00,68.2,61.1,29.88,North,0,2.3,2.3,78,0.00,CLR,,0.01,WeatherDisplay:10.37,2013-02-05 21:32:00,
2013-02-05 15:37:00,67.8,60.3,29.88,North,0,2.3,2.3,77,0.00,CLR,,0.01,WeatherDisplay:10.37,2013-02-05 21:37:00,
2013-02-05 15:42:00,67.1,60.0,29.88,NE,45,1.1,1.1,78,0.00,CLR,,0.01,WeatherDisplay:10.37,2013-02-05 21:42:00,
2013-02-05 15:47:00,66.6,59.8,29.88,West,270,3.5,3.5,79,0.00,CLR,,0.01,WeatherDisplay:10.37,2013-02-05 21:47:00,
2013-02-05 15:53:00,66.4,60.0,29.88,NE,45,3.5,3.5,80,0.00,CLR,,0.01,WeatherDisplay:10.37,2013-02-05 21:53:00,
2013-02-05 15:58:00,66.6,60.2,29.88,North,0,4.6,4.6,80,0.00,CLR,,0.01,WeatherDisplay:10.37,2013-02-05 21:58:00,
2013-02-05 16:03:00,66.6,60.2,29.88,NE,45,3.5,3.5,80,0.00,CLR,,0.01,WeatherDisplay:10.37,2013-02-05 22:03:00,
2013-02-05 16:08:00,66.2,59.8,29.88,NE,45,3.5,3.5,80,0.00,CLR,,0.01,WeatherDisplay:10.37,2013-02-05 22:08:00,
2013-02-05 16:13:00,65.8,59.5,29.87,NE,45,3.5,3.5,80,0.00,CLR,,0.01,WeatherDisplay:10.37,2013-02-05 22:13:00,
2013-02-05 16:18:00,65.5,59.5,29.88,NE,45,2.3,2.3,81,0.00,CLR,,0.01,WeatherDisplay:10.37,2013-02-05 22:18:00,
2013-02-05 16:23:00,65.1,59.5,29.87,NE,45,1.6,0.0,82,0.00,CLR,,0.01,WeatherDisplay:10.37,2013-02-05 22:23:00,
2013-02-05 16:28:00,64.9,59.3,29.87,NE,45,1.1,0.0,82,0.00,CLR,,0.01,WeatherDisplay:10.37,2013-02-05 22:28:00,
2013-02-05 16:33:00,64.9,59.3,29.87,NE,45,1.1,0.0,82,0.00,CLR,,0.01,WeatherDisplay:10.37,2013-02-05 22:33:00,
2013-02-05 16:38:00,64.8,59.1,29.87,NE,45,2.3,2.3,82,0.00,CLR,,0.01,WeatherDisplay:10.37,2013-02-05 22:38:00,
2013-02-05 16:43:00,64.8,59.5,29.88,NE,45,2.3,2.3,83,0.00,CLR,,0.01,WeatherDisplay:10.37,2013-02-05 22:43:00,
2013-02-05 16:48:00,64.6,59.3,29.87,NE,45,1.1,0.0,83,0.00,CLR,,0.01,WeatherDisplay:10.37,2013-02-05 22:48:00,
2013-02-05 16:53:00,64.4,59.1,29.88,ENE,68,3.5,3.5,83,0.00,CLR,,0.01,WeatherDisplay:10.37,2013-02-05 22:53:00,
2013-02-05 16:58:00,64.0,58.8,29.87,NE,45,3.5,3.5,83,0.00,CLR,,0.01,WeatherDisplay:10.37,2013-02-05 22:58:00,
2013-02-05 17:03:00,63.9,58.6,29.88,East,90,1.1,1.1,83,0.00,CLR,,0.01,WeatherDisplay:10.37,2013-02-05 23:03:00,
2013-02-05 17:08:00,63.5,58.6,29.87,NE,45,1.1,1.1,84,0.00,CLR,,0.01,WeatherDisplay:10.37,2013-02-05 23:08:00,
2013-02-05 17:13:00,63.1,58.2,29.87,NE,45,1.1,0.0,84,0.00,CLR,,0.01,WeatherDisplay:10.37,2013-02-05 23:13:00,
2013-02-05 17:19:00,62.8,58.2,29.87,NE,45,1.1,0.0,85,0.00,CLR,,0.01,WeatherDisplay:10.37,2013-02-05 23:19:00,
2013-02-05 17:24:00,62.4,57.8,29.88,NE,45,1.1,0.0,85,0.00,CLR,,0.01,WeatherDisplay:10.37,2013-02-05 23:24:00,
2013-02-05 17:29:00,61.7,57.1,29.87,NE,45,1.1,0.0,85,0.00,CLR,,0.01,WeatherDisplay:10.37,2013-02-05 23:29:00,
2013-02-05 17:34:00,61.3,57.1,29.87,NE,45,1.1,1.1,86,0.00,CLR,,0.01,WeatherDisplay:10.37,2013-02-05 23:34:00,
2013-02-05 17:39:00,61.0,56.8,29.87,North,0,1.1,0.0,86,0.00,CLR,,0.01,WeatherDisplay:10.37,2013-02-05 23:39:00,
2013-02-05 17:44:00,60.6,56.7,29.87,North,0,0.0,0.0,87,0.00,CLR,,0.01,WeatherDisplay:10.37,2013-02-05 23:44:00,
2013-02-05 17:50:00,60.1,56.2,29.88,NE,45,0.0,0.0,87,0.00,CLR,,0.01,WeatherDisplay:10.37,2013-02-05 23:50:00,
2013-02-05 17:55:00,59.7,56.2,29.88,NE,45,0.0,0.0,88,0.00,CLR,,0.01,WeatherDisplay:10.37,2013-02-05 23:55:00,
2013-02-05 18:00:00,59.4,56.1,29.87,NE,45,0.0,0.0,89,0.00,CLR,,0.01,WeatherDisplay:10.37,2013-02-06 00:00:00,
2013-02-05 18:05:00,59.2,55.9,29.87,NE,45,0.0,0.0,89,0.00,CLR,,0.01,WeatherDisplay:10.37,2013-02-06 00:05:00,
2013-02-05 18:10:00,58.6,55.7,29.88,NW,315,0.0,0.0,90,0.00,CLR,,0.01,WeatherDisplay:10.37,2013-02-06 00:10:00,
2013-02-05 18:15:00,58.1,55.5,29.88,NW,315,0.0,0.0,91,0.00,CLR,,0.01,WeatherDisplay:10.37,2013-02-06 00:15:00,
2013-02-05 18:20:00,57.9,55.3,29.88,NW,315,0.0,0.0,91,0.00,CLR,,0.01,WeatherDisplay:10.37,2013-02-06 00:20:00,
2013-02-05 18:25:00,57.6,55.3,29.88,NW,315,0.0,0.0,92,0.00,CLR,,0.01,WeatherDisplay:10.37,2013-02-06 00:25:00,
2013-02-05 18:30:00,57.4,55.4,29.88,South,180,0.0,0.0,93,0.00,CLR,,0.01,WeatherDisplay:10.37,2013-02-06 00:30:00,
2013-02-05 18:35:00,57.4,55.4,29.88,South,180,0.0,0.0,93,0.00,CLR,,0.01,WeatherDisplay:10.37,2013-02-06 00:35:00,
2013-02-05 18:40:00,57.0,55.0,29.88,South,180,0.0,0.0,93,0.00,CLR,,0.01,WeatherDisplay:10.37,2013-02-06 00:40:00,
2013-02-05 18:45:00,56.8,54.8,29.89,South,180,0.0,0.0,93,0.00,CLR,,0.01,WeatherDisplay:10.37,2013-02-06 00:45:00,
2013-02-05 18:50:00,56.7,55.0,29.89,South,180,0.0,0.0,94,0.00,CLR,,0.01,WeatherDisplay:10.37,2013-02-06 00:50:00,
2013-02-05 18:55:00,56.3,54.6,29.89,South,180,0.0,0.0,94,0.00,CLR,,0.01,WeatherDisplay:10.37,2013-02-06 00:55:00,
2013-02-05 19:00:00,55.9,54.2,29.89,South,180,0.0,0.0,94,0.00,CLR,,0.01,WeatherDisplay:10.37,2013-02-06 01:00:00,
2013-02-05 19:05:00,55.9,54.2,29.90,South,180,0.0,0.0,94,0.00,CLR,,0.01,WeatherDisplay:10.37,2013-02-06 01:05:00,
2013-02-05 19:10:00,55.8,54.3,29.90,South,180,0.0,0.0,95,0.00,CLR,,0.01,WeatherDisplay:10.37,2013-02-06 01:10:00,
2013-02-05 19:15:00,55.8,54.3,29.90,South,180,0.0,0.0,95,0.00,CLR,,0.01,WeatherDisplay:10.37,2013-02-06 01:15:00,
2013-02-05 19:20:00,55.4,54.0,29.90,South,180,0.0,0.0,95,0.00,CLR,,0.01,WeatherDisplay:10.37,2013-02-06 01:20:00,
2013-02-05 19:25:00,55.4,54.0,29.91,South,180,0.0,0.0,95,0.00,CLR,,0.01,WeatherDisplay:10.37,2013-02-06 01:25:00,
2013-02-05 19:30:00,55.2,53.8,29.91,South,180,0.0,0.0,95,0.00,CLR,,0.01,WeatherDisplay:10.37,2013-02-06 01:30:00,
2013-02-05 19:35:00,54.9,53.5,29.91,South,180,0.0,0.0,95,0.00,CLR,,0.01,WeatherDisplay:10.37,2013-02-06 01:35:00,
2013-02-05 19:40:00,54.7,53.3,29.91,South,180,0.0,0.0,95,0.00,CLR,,0.01,WeatherDisplay:10.37,2013-02-06 01:40:00,
2013-02-05 19:45:00,54.3,53.2,29.91,North,0,1.1,0.0,96,0.00,CLR,,0.01,WeatherDisplay:10.37,2013-02-06 01:45:00,
2013-02-05 19:50:00,54.3,53.2,29.91,North,0,0.0,0.0,96,0.00,CLR,,0.01,WeatherDisplay:10.37,2013-02-06 01:50:00,
2013-02-05 19:55:00,54.3,53.2,29.91,North,0,0.0,0.0,96,0.00,CLR,,0.01,WeatherDisplay:10.37,2013-02-06 01:55:00,
2013-02-05 20:00:00,54.1,53.0,29.91,North,0,1.1,0.0,96,0.00,CLR,,0.01,WeatherDisplay:10.37,2013-02-06 02:00:00,
2013-02-05 20:05:00,54.1,53.0,29.91,North,0,1.1,0.0,96,0.00,CLR,,0.01,WeatherDisplay:10.37,2013-02-06 02:05:00,
2013-02-05 20:10:00,53.8,52.7,29.91,North,0,0.0,0.0,96,0.00,CLR,,0.01,WeatherDisplay:10.37,2013-02-06 02:10:00,
2013-02-05 20:16:00,53.6,52.5,29.92,North,0,0.0,0.0,96,0.00,CLR,,0.01,WeatherDisplay:10.37,2013-02-06 02:16:00,
2013-02-05 20:21:00,53.6,52.5,29.91,North,0,0.0,0.0,96,0.00,CLR,,0.01,WeatherDisplay:10.37,2013-02-06 02:21:00,
2013-02-05 20:26:00,53.4,52.6,29.92,North,0,0.0,0.0,97,0.00,CLR,,0.01,WeatherDisplay:10.37,2013-02-06 02:26:00,
2013-02-05 20:31:00,53.4,52.6,29.92,North,0,0.0,0.0,97,0.00,CLR,,0.01,WeatherDisplay:10.37,2013-02-06 02:31:00,
2013-02-05 20:36:00,53.1,52.2,29.92,North,0,0.0,0.0,97,0.00,CLR,,0.01,WeatherDisplay:10.37,2013-02-06 02:36:00,
2013-02-05 20:41:00,53.1,52.2,29.92,North,0,0.0,0.0,97,0.00,CLR,,0.01,WeatherDisplay:10.37,2013-02-06 02:41:00,
2013-02-05 20:46:00,52.9,52.1,29.92,North,0,0.0,0.0,97,0.00,CLR,,0.01,WeatherDisplay:10.37,2013-02-06 02:46:00,
2013-02-05 20:51:00,53.1,52.2,29.92,North,0,0.0,0.0,97,0.00,CLR,,0.01,WeatherDisplay:10.37,2013-02-06 02:51:00,
2013-02-05 20:56:00,52.9,52.1,29.93,North,0,0.0,0.0,97,0.00,CLR,,0.01,WeatherDisplay:10.37,2013-02-06 02:56:00,
2013-02-05 21:01:00,52.7,51.9,29.93,North,0,0.0,0.0,97,0.00,CLR,,0.01,WeatherDisplay:10.37,2013-02-06 03:01:00,
2013-02-05 21:06:00,52.7,51.9,29.93,North,0,0.0,0.0,97,0.00,CLR,,0.01,WeatherDisplay:10.37,2013-02-06 03:06:00,
2013-02-05 21:11:00,52.7,51.9,29.93,North,0,0.0,0.0,97,0.00,CLR,,0.01,WeatherDisplay:10.37,2013-02-06 03:11:00,
2013-02-05 21:16:00,52.5,51.7,29.93,North,0,0.0,0.0,97,0.00,CLR,,0.01,WeatherDisplay:10.37,2013-02-06 03:16:00,
2013-02-05 21:21:00,52.7,51.9,29.93,SE,135,0.0,0.0,97,0.00,CLR,,0.01,WeatherDisplay:10.37,2013-02-06 03:21:00,
2013-02-05 21:26:00,52.9,52.3,29.93,SE,135,0.0,0.0,98,0.00,CLR,,0.01,WeatherDisplay:10.37,2013-02-06 03:26:00,
2013-02-05 21:35:00,52.5,51.7,29.93,East,93,0.0,1.0,97,0.00,CLR,,0.01,WeatherDisplay:10.37,2013-02-06 03:35:00,
2013-02-05 21:40:00,52.3,51.8,29.93,North,0,1.1,1.1,98,0.00,CLR,,0.01,WeatherDisplay:10.37,2013-02-06 03:40:00,
2013-02-05 21:45:00,52.3,51.8,29.94,North,354,0.0,2.0,98,0.00,CLR,,0.01,WeatherDisplay:10.37,2013-02-06 03:45:00,
2013-02-05 21:50:00,52.3,51.8,29.94,North,0,1.1,0.0,98,0.00,CLR,,0.01,WeatherDisplay:10.37,2013-02-06 03:50:00,
2013-02-05 21:55:00,52.3,51.8,29.93,North,0,1.1,0.0,98,0.00,CLR,,0.01,WeatherDisplay:10.37,2013-02-06 03:55:00,
2013-02-05 22:00:00,52.2,51.6,29.93,North,11,1.0,2.0,98,0.00,CLR,,0.01,WeatherDisplay:10.37,2013-02-06 04:00:00,
2013-02-05 22:05:00,52.2,51.6,29.93,East,90,1.6,1.6,98,0.00,CLR,,0.01,WeatherDisplay:10.37,2013-02-06 04:05:00,
2013-02-05 22:10:00,52.3,51.8,29.93,NE,45,2.3,2.3,98,0.00,CLR,,0.01,WeatherDisplay:10.37,2013-02-06 04:10:00,
2013-02-05 22:15:00,52.3,51.8,29.93,North,0,1.1,0.0,98,0.00,CLR,,0.01,WeatherDisplay:10.37,2013-02-06 04:15:00,
2013-02-05 22:20:00,52.3,51.8,29.93,North,0,2.3,0.0,98,0.00,CLR,,0.01,WeatherDisplay:10.37,2013-02-06 04:20:00,
2013-02-05 22:25:00,52.5,52.0,29.93,NE,45,1.1,0.0,98,0.00,CLR,,0.01,WeatherDisplay:10.37,2013-02-06 04:25:00,
2013-02-05 22:31:00,52.5,52.0,29.94,NE,45,0.0,0.0,98,0.00,CLR,,0.01,WeatherDisplay:10.37,2013-02-06 04:31:00,
2013-02-05 22:36:00,52.5,52.0,29.94,NE,45,0.0,0.0,98,0.00,CLR,,0.01,WeatherDisplay:10.37,2013-02-06 04:36:00,
2013-02-05 22:41:00,52.5,52.0,29.94,NE,45,1.1,1.1,98,0.00,CLR,,0.01,WeatherDisplay:10.37,2013-02-06 04:41:00,
2013-02-05 22:46:00,52.5,52.0,29.94,NE,45,1.1,0.0,98,0.00,CLR,,0.01,WeatherDisplay:10.37,2013-02-06 04:46:00,
2013-02-05 22:51:00,52.5,52.0,29.94,NW,315,1.1,0.0,98,0.00,CLR,,0.01,WeatherDisplay:10.37,2013-02-06 04:51:00,
2013-02-05 22:56:00,52.3,51.8,29.94,NE,45,0.0,0.0,98,0.00,CLR,,0.01,WeatherDisplay:10.37,2013-02-06 04:56:00,
2013-02-05 23:00:00,52.5,52.0,29.94,NNE,23,0.0,2.0,98,0.00,CLR,,0.01,WeatherDisplay:10.37,2013-02-06 05:00:00,
2013-02-05 23:06:00,52.5,52.0,29.94,West,270,1.1,0.0,98,0.00,CLR,,0.01,WeatherDisplay:10.37,2013-02-06 05:06:00,
2013-02-05 23:11:00,52.3,51.8,29.94,North,0,0.0,0.0,98,0.00,CLR,,0.01,WeatherDisplay:10.37,2013-02-06 05:11:00,
2013-02-05 23:16:00,52.2,51.9,29.94,North,0,1.1,0.0,99,0.00,CLR,,0.01,WeatherDisplay:10.37,2013-02-06 05:16:00,
2013-02-05 23:21:00,52.2,51.6,29.94,North,0,1.1,0.0,98,0.00,CLR,,0.01,WeatherDisplay:10.37,2013-02-06 05:21:00,
2013-02-05 23:26:00,52.0,51.7,29.94,NE,45,1.1,0.0,99,0.00,CLR,,0.01,WeatherDisplay:10.37,2013-02-06 05:26:00,
2013-02-05 23:31:00,52.0,51.7,29.94,North,0,1.1,1.1,99,0.00,CLR,,0.01,WeatherDisplay:10.37,2013-02-06 05:31:00,
2013-02-05 23:37:00,52.0,51.7,29.94,North,0,1.1,0.0,99,0.00,CLR,,0.01,WeatherDisplay:10.37,2013-02-06 05:37:00,
2013-02-05 23:42:00,52.0,51.7,29.94,North,0,1.1,0.0,99,0.00,CLR,,0.01,WeatherDisplay:10.37,2013-02-06 05:42:00,
2013-02-05 23:47:00,52.0,51.7,29.93,North,0,2.3,0.0,99,0.00,CLR,,0.01,WeatherDisplay:10.37,2013-02-06 05:47:00,
2013-02-05 23:52:00,52.0,51.7,29.93,North,0,0.0,0.0,99,0.00,CLR,,0.01,WeatherDisplay:10.37,2013-02-06 05:52:00,
2013-02-05 23:57:00,52.0,51.7,29.93,SE,135,1.1,0.0,99,0.00,CLR,,0.01,WeatherDisplay:10.37,2013-02-06 05:57:00,